Showing default

TIANZHI 1, 43710

Orbit data source: Space-Track

TIANZHI 1, 43710 is a payload satellite owned by Inst. Software (CN) in SSO that was launched on Mon, 19 Nov 2018 UTC via a CHANG ZHENG 2D launch vehicle from the Jiuquan Satellite Launch Center, China (JSC). Payloads include a variety of satellites, spacecraft, and rockets equipped with specific instruments for various scientific and technological missions. These include communications satellites like Starlink; space stations such as the ISS; scientific satellites like the Hubble; Earth observation satellites from companies like Planet Labs, Umbra, and HawkEye 360; GPS; miniature CubeSats for education and research; and military/defense satellites.

Loading next visibility...
TIANZHI 1 details
Identifier
43710, 2018-094A
Orbit
SSO
Last TLE update7 hours ago
Origin
Flag of CNInst. Software (CN / PRC)
ManufacturerIMI/CAS
MissionOperational Civil Communications
Bus & MotorTZ-1, Unknown motor
Mass27 kg wet, 27 kg dry
Launch date (UTC)
2018-11-19 (6 years ago)
Launch vehicle
CHANG ZHENG 2D
Launch site
Jiuquan Satellite Launch Center, China (JSC)
Object type
Payload
Rocket body
Debris
Shape & HBRBox + 2 Pan, 0.5 m
Radar Cross Section0.120 m², Medium (>0.1 m² and < 1m²)

Expand to show TLE details & history

TLE from 7 hours ago
0 TIANZHI 1
1 43710U 18094A   24361.14487621  .00044892  00000-0  66138-3 0  9990
2 43710  97.3581  22.2313 0004403 310.5362  49.5508 15.55279385340350
Epoch: 2024-12-26T03:28Z
Definitive object data (Epoch: 2024-12-26T03:28:37.304Z)
Latitude-0.00007°
Longitude-125.0526°
Altitude402.544 km
Speed7.67 km/s
True Right ascension01h 28m 55s
True Declination0° 00' 00"
Sunlit
Object was in daylight at TLE epoch
Visualization TLE readout
Latitude-72.37693°
Longitude31.41455°
Altitude426.306 km
Speed7.655 km/s
Apparent Right ascension20h 57m 03s
Apparent Declination-73° 04' 36"
Sunlit
Object is in daylight
Visualization observer readout
Local Sidereal Time10:05:45
Azimuth171.202° S
Elevation-55.811°
Doppler factor1
Orbital elements
Apogee altitude401.241 km
Perigee altitude395.274 km
Semi-major axis6,776.395 km
Eccentricity0.0004403
Inclination97.3581°
RAAN22.2313°
Arg. of periapsis310.5362°
True anomaly49.58921°
Mean anomaly49.5508°
Eccentric anomaly49.57°
Mean motion3.89086 °/min
BSTAR0.00066138
Orbital period92.52 mins
Loading maneuver chart data...
Loading historical data...
Loading historical data...
Loading historical data...
Loading historical data...
Loading historical data...
Loading historical data...
Loading historical data...

TIANZHI 1 Visibility forecast

Observer location: undefined°, undefined

Span
Click to sort rows by Start time (UTC) header in descending order
Start Az.
Max El. time (UTC)
Max El. Az.
Max El.
End time (UTC)
End Az.
5 mins2024-12-26 14:50:31.038Z353.801° N2024-12-26 14:52:31.038Z305.729° NW33.066°2024-12-26 14:55:31.038Z214.658° SW
|